LATEST WEATHER OBSERVATIONS RECORDED AT FUA'AMOTU AIRPORT
DATE TIME CLOUD WIND KT TEMP
(C)
DewPoint
(C)
RH(%) WEATHER MSL PRESS.
(MB)
24.05.2019 12:00AM OVERCAST SE 11 22.3 21.9 97.59333 MODERATE RAIN 1013.1
23.05.2019 11:00PM OVERCAST SE 11 22.5 22.1 97.597 LIGHT RAIN 1013.7
23.05.2019 10:00PM OVERCAST SE 12 22.4 21.8 96.41181 LIGHT SHOWERS 1013.8
23.05.2019 09:00PM OVERCAST SE 12 22.1 21.6 96.99507 LIGHT SHOWERS 1013.6
23.05.2019 08:00PM OVERCAST SE 12 22 21.5 96.99278 LIGHT SHOWERS 1013.6
23.05.2019 07:00PM OVERCAST SE 12 22.5 22.1 97.597 MODERATE RAIN 1013.3
23.05.2019 06:00PM OVERCAST SE 10 22.4 21.8 96.41181 LIGHT RAIN 1013.1
23.05.2019 05:25PM OVERCAST SE 10 22.9 21.9 94.10471 MODERATE RAIN 1013.1
23.05.2019 05:00PM OVERCAST SE 10 23.1 21.6 91.28547 LIGHT RAIN 1013
23.05.2019 04:00PM OVERCAST SE 10 23.7 21.1 85.38628 NIL 1013.2
23.05.2019 03:00PM OVERCAST E 10 24.2 20.4 79.36718 NIL 1013.3
23.05.2019 02:00PM OVERCAST E 10 24.7 21.6 82.92074 LIGHT SHOWERS 1013.8
23.05.2019 02:00PM OVERCAST E 10 24.7 21.6 82.92074 NIL 1013.8
23.05.2019 01:00PM OVERCAST E 12 25.3 21.7 80.50012 NIL 1014.3
23.05.2019 12:00PM CLOUDY E 13G27 25.1 21.5 80.47331 NIL 1014.7
23.05.2019 11:00AM CLOUDY E 13G24 25 21.3 79.96852 NIL 1015.3
23.05.2019 10:00AM CLOUDY E 13G24 24.6 21.5 82.9088 NIL 1015.5
23.05.2019 09:00AM CLOUDY E 14 24.1 21.1 83.35921 NIL 1015.3
23.05.2019 08:00AM OVERCAST E 12 24 21 83.34753 NIL 1014
23.05.2019 07:00AM OVERCAST E 12 23 21 88.52363 NIL 1014
23.05.2019 06:00AM CLOUDY E 13 23 21 88.52363 NIL 1013
23.05.2019 05:00AM CLOUDY E 15 24 21 83.34753 NIL 1013
23.05.2019 04:00AM CLOUDY E 15 24 21 83.34753 NIL 1013
23.05.2019 03:00AM CLOUDY E 11 23 21 88.52363 NIL 1014